Location: Austin
(30.3000°N, 97.7500°W)
Time: 04:08:31
(UTC-05:00)

Radarsat Rocket - Pass Details

Date: 01 October 2024
Orbit: 933 x 1492 km, 100.6° (Epoch: 06 October)

Event Time Altitude Azimuth Distance (km) Brightness Sun altitude
Rises 20:01:47 0° 161° (SSE) 3,883 6.9 -10.8°
Reaches altitude 10° 20:04:24 10° 160° (SSE) 2,861 6.2 -11.4°
Maximum altitude 20:10:43 80° 74° (ENE) 998 4.0 -12.7°
Drops below altitude 10° 20:16:36 10° 348° (NNW) 2,660 6.5 -14.0°
Sets 20:18:58 0° 347° (NNW) 3,593 7.2 -14.5°
